Find Starlink 30416

NORAD ID: 57847 Int'l Des: 2023-141 Owner: SPXS Country: US Constellation: starlink operational
LEOCIRCULAR

現在のビュー

3D地球を読み込み中...

About Starlink 30416

Starlink 30416 (NORAD 57847) is a starlink constellation satellite (v2 mini) launched Sep 12, 2023 by SPXS of US. It operates in LEO, CIRCULAR orbit with a mass of 730.00 kg.

次回通過

Passes for default location (London). Set your location on the main map for personalized predictions.

高度履歴

Loading altitude history...

軌道要素

1 57847U 23141H 26263.96028952 .00002645 00000-0 96915-4 0 9993
2 57847 53.1600 95.7343 0001225 143.9017 216.2067 15.31716375170241
Epoch: Sep 20, 2026 • Age: 23 hours

現在のステータス

高度 485.1 km
遠地点 / 近地点 N/A
速度 7.62 km/s
衛星直下点 -42.98°S, 15.63°W
打ち上げ日 Sep 12, 2023
運用期間 3 years
タイプ internet

技術仕様

分類 Payload
質量 730.00 kg
乾燥質量 700.00 kg
長さ 0.30 m
スパン 29.00 m
形状 ? Box + pan
製造者 SPXS
バスタイプ Starlink V2M
フェーズステータス In Orbit
所有者/国 SPXS/US

Most Searched